When you browse on this site, cookies collect data to enhance your experience and personalize the content and advertising you see.
Visit our Privacy Policy to learn more. By continuing to use the site, you agree to this use of cookies and data.
  • In Italy
  • List of Countries
  • For 7 days
  • Water Temperature
  • Satellite Maps
  • Weather Map
  • Weather Widgets
  • user-avatar
    Login

    Hourly Weather Nizhnegorskij

    Today, 10 December, Monday

    Time Temperature Precipitation Wind Pressure Humidity
    00:00 +5°C° 0 mm 3 mps 747 mmHg 80%
    01:00 +6°C° 0 mm 2 mps 746 mmHg 79%
    02:00 +6°C° 0 mm 2 mps 746 mmHg 79%
    03:00 +6°C° 0.2 mm 2 mps 746 mmHg 78%
    04:00 +6°C° 0.2 mm 2 mps 745 mmHg 77%
    05:00 +6°C° 0.2 mm 2 mps 745 mmHg 77%
    06:00 +7°C° 0.2 mm 1 mps 745 mmHg 78%
    07:00 +7°C° 0.2 mm 1 mps 745 mmHg 79%
    08:00 +7°C° 0.2 mm 1 mps 744 mmHg 80%
    09:00 +8°C° 0.3 mm 1 mps 744 mmHg 79%
    10:00 +8°C° 0.3 mm 1 mps 744 mmHg 78%
    11:00 +7°C° 0.3 mm 2 mps 744 mmHg 77%
    12:00 +8°C° 0.1 mm 2 mps 744 mmHg 77%
    13:00 +9°C° 0.1 mm 1 mps 744 mmHg 78%
    14:00 +9°C° 0.1 mm 1 mps 744 mmHg 78%
    15:00 +9°C° 0.1 mm 1 mps 744 mmHg 81%
    16:00 +9°C° 0.1 mm 1 mps 745 mmHg 84%
    17:00 +8°C° 0.1 mm 1 mps 745 mmHg 87%
    18:00 +8°C° 0 mm 1 mps 745 mmHg 89%
    19:00 +7°C° 0 mm 1 mps 745 mmHg 91%
    20:00 +7°C° 0 mm 1 mps 745 mmHg 92%
    21:00 +7°C° 0 mm 1 mps 746 mmHg 93%
    22:00 +7°C° 0 mm 1 mps 746 mmHg 93%
    23:00 +6°C° 0 mm 1 mps 746 mmHg 93%

    Tomorrow, 11 December, Tuesday

    Time Temperature Precipitation Wind Pressure Humidity
    00:00 +6°C° 0 mm 1 mps 745 mmHg 93%
    01:00 +5°C° 0 mm 2 mps 745 mmHg 94%
    02:00 +4°C° 0 mm 3 mps 744 mmHg 94%
    03:00 +4°C° 0.4 mm 4 mps 744 mmHg 94%
    04:00 +5°C° 0.4 mm 5 mps 743 mmHg 94%
    05:00 +4°C° 0.4 mm 6 mps 742 mmHg 93%
    06:00 +4°C° 2.6 mm 6 mps 742 mmHg 94%
    07:00 +4°C° 2.6 mm 7 mps 741 mmHg 94%
    08:00 +4°C° 2.6 mm 8 mps 741 mmHg 95%
    09:00 +4°C° 2.1 mm 8 mps 740 mmHg 93%
    10:00 +4°C° 2.1 mm 7 mps 740 mmHg 92%
    11:00 +5°C° 2.1 mm 7 mps 739 mmHg 91%
    12:00 +5°C° 3 mm 7 mps 739 mmHg 92%
    13:00 +4°C° 3 mm 7 mps 738 mmHg 93%
    14:00 +4°C° 3 mm 7 mps 738 mmHg 94%
    15:00 +4°C° 1.6 mm 7 mps 738 mmHg 94%
    16:00 +4°C° 1.6 mm 7 mps 738 mmHg 93%
    17:00 +3°C° 1.6 mm 7 mps 738 mmHg 93%
    18:00 +2°C° 0.9 mm 8 mps 739 mmHg 90%
    19:00 +1°C° 0.9 mm 9 mps 739 mmHg 88%
    20:00 +1°C° 0.9 mm 10 mps 740 mmHg 86%
    21:00 +1°C° 0.4 mm 10 mps 741 mmHg 85%
    22:00 +1°C° 0.4 mm 11 mps 741 mmHg 84%
    23:00 +1°C° 0.4 mm 11 mps 742 mmHg 83%

    Day after tomorrow, 12 December, Wednesday

    Time Temperature Precipitation Wind Pressure Humidity
    00:00 +1°C° 0.4 mm 11 mps 742 mmHg 83%
    01:00 +1°C° 0.4 mm 11 mps 743 mmHg 82%
    02:00 +1°C° 0.4 mm 11 mps 744 mmHg 82%
    03:00 +1°C° 0.2 mm 11 mps 744 mmHg 79%
    04:00 +1°C° 0.2 mm 10 mps 745 mmHg 77%
    05:00 +1°C° 0.2 mm 10 mps 746 mmHg 74%
    06:00 +1°C° 0 mm 9 mps 746 mmHg 75%
    07:00 +1°C° 0 mm 8 mps 747 mmHg 75%
    08:00 +2°C° 0 mm 7 mps 748 mmHg 76%
    09:00 +3°C° 0 mm 7 mps 748 mmHg 72%
    10:00 +3°C° 0 mm 7 mps 749 mmHg 69%
    11:00 +4°C° 0 mm 8 mps 749 mmHg 66%
    12:00 +4°C° 0 mm 7 mps 749 mmHg 64%
    13:00 +4°C° 0 mm 7 mps 749 mmHg 63%
    14:00 +4°C° 0 mm 7 mps 749 mmHg 62%
    15:00 +3°C° 0 mm 6 mps 749 mmHg 66%
    16:00 +2°C° 0 mm 5 mps 750 mmHg 70%
    17:00 +3°C° 0 mm 4 mps 750 mmHg 75%
    18:00 +1°C° 0 mm 4 mps 750 mmHg 76%
    19:00 +1°C° 0 mm 4 mps 750 mmHg 77%
    20:00 +1°C° 0 mm 4 mps 751 mmHg 79%
    21:00 +1°C° 0 mm 4 mps 751 mmHg 79%
    22:00 +1°C° 0 mm 3 mps 751 mmHg 79%
    23:00 +1°C° 0 mm 3 mps 751 mmHg 79%

    13 December, Thursday

    Time Temperature Precipitation Wind Pressure Humidity
    00:00 +1°C° 0.1 mm 3 mps 752 mmHg 80%
    01:00 +1°C° 0.1 mm 3 mps 752 mmHg 80%
    02:00 0°C° 0.1 mm 4 mps 752 mmHg 80%
    03:00 0°C° 0.1 mm 4 mps 752 mmHg 80%
    04:00 0°C° 0.1 mm 4 mps 752 mmHg 80%
    05:00 0°C° 0.1 mm 4 mps 752 mmHg 79%
    06:00 0°C° 0 mm 4 mps 752 mmHg 79%
    07:00 +1°C° 0 mm 3 mps 753 mmHg 78%
    08:00 +1°C° 0 mm 3 mps 753 mmHg 78%
    09:00 +1°C° 0.1 mm 4 mps 753 mmHg 74%
    10:00 +4°C° 0.1 mm 4 mps 753 mmHg 69%
    11:00 +5°C° 0.1 mm 5 mps 753 mmHg 65%
    12:00 +5°C° 0.2 mm 5 mps 753 mmHg 65%
    13:00 +5°C° 0.2 mm 5 mps 753 mmHg 64%
    14:00 +5°C° 0.2 mm 5 mps 753 mmHg 64%
    15:00 +4°C° 0.1 mm 4 mps 753 mmHg 68%
    16:00 +3°C° 0.1 mm 4 mps 753 mmHg 73%
    17:00 +2°C° 0.1 mm 3 mps 753 mmHg 77%
    18:00 +2°C° 0 mm 3 mps 753 mmHg 78%
    19:00 +2°C° 0 mm 3 mps 753 mmHg 79%
    20:00 +2°C° 0 mm 3 mps 754 mmHg 80%
    21:00 +2°C° 0 mm 3 mps 754 mmHg 80%
    22:00 +1°C° 0 mm 3 mps 754 mmHg 80%
    23:00 +1°C° 0 mm 3 mps 754 mmHg 80%

    14 December, Friday

    Time Temperature Precipitation Wind Pressure Humidity
    00:00 +1°C° 0 mm 3 mps 754 mmHg 80%
    01:00 +1°C° 0 mm 3 mps 754 mmHg 79%
    02:00 +1°C° 0 mm 3 mps 754 mmHg 79%
    03:00 +1°C° 0 mm 3 mps 754 mmHg 78%
    04:00 +1°C° 0 mm 3 mps 754 mmHg 78%
    05:00 +2°C° 0 mm 2 mps 754 mmHg 77%
    06:00 +2°C° 0 mm 2 mps 755 mmHg 77%
    07:00 +2°C° 0 mm 2 mps 755 mmHg 76%
    08:00 +2°C° 0 mm 2 mps 755 mmHg 75%
    09:00 +4°C° 0 mm 2 mps 755 mmHg 70%
    10:00 +4°C° 0 mm 3 mps 756 mmHg 64%
    11:00 +5°C° 0 mm 3 mps 756 mmHg 59%
    12:00 +7°C° 0 mm 2 mps 756 mmHg 58%
    13:00 +7°C° 0 mm 2 mps 756 mmHg 57%
    14:00 +7°C° 0 mm 2 mps 756 mmHg 56%
    15:00 +6°C° 0 mm 2 mps 756 mmHg 60%
    16:00 +6°C° 0 mm 1 mps 756 mmHg 65%
    17:00 +5°C° 0 mm 1 mps 756 mmHg 69%
    18:00 +4°C° 0 mm 1 mps 756 mmHg 70%
    19:00 +4°C° 0 mm 1 mps 757 mmHg 71%
    20:00 +4°C° 0 mm 1 mps 757 mmHg 72%
    21:00 +4°C° 0 mm 1 mps 757 mmHg 72%
    22:00 +4°C° 0 mm 1 mps 757 mmHg 73%
    23:00 +4°C° 0 mm 1 mps 757 mmHg 73%

    15 December, Saturday

    Time Temperature Precipitation Wind Pressure Humidity
    00:00 +3°C° 0 mm 2 mps 756 mmHg 75%
    01:00 +3°C° 0 mm 2 mps 756 mmHg 76%
    02:00 +3°C° 0 mm 2 mps 756 mmHg 77%
    03:00 +3°C° 0 mm 2 mps 756 mmHg 78%
    04:00 +2°C° 0 mm 3 mps 756 mmHg 79%
    05:00 +2°C° 0 mm 3 mps 756 mmHg 80%
    06:00 +3°C° 0 mm 3 mps 756 mmHg 80%
    07:00 +3°C° 0 mm 3 mps 756 mmHg 80%
    08:00 +3°C° 0 mm 4 mps 756 mmHg 80%
    09:00 +4°C° 0.1 mm 4 mps 756 mmHg 78%
    10:00 +6°C° 0.1 mm 5 mps 756 mmHg 75%
    11:00 +7°C° 0.1 mm 5 mps 756 mmHg 72%
    12:00 +7°C° 0.1 mm 5 mps 755 mmHg 73%
    13:00 +8°C° 0.1 mm 5 mps 755 mmHg 74%
    14:00 +8°C° 0.1 mm 5 mps 755 mmHg 74%
    15:00 +8°C° 0.1 mm 5 mps 755 mmHg 78%
    16:00 +8°C° 0.1 mm 5 mps 755 mmHg 81%
    17:00 +7°C° 0.1 mm 5 mps 755 mmHg 84%
    18:00 +7°C° 0.1 mm 5 mps 755 mmHg 84%
    19:00 +7°C° 0.1 mm 6 mps 755 mmHg 84%
    20:00 +7°C° 0.1 mm 6 mps 755 mmHg 84%
    21:00 +7°C° 0 mm 6 mps 755 mmHg 82%
    22:00 +7°C° 0 mm 6 mps 755 mmHg 80%
    23:00 +7°C° 0 mm 6 mps 754 mmHg 78%
    Show more